EHI
0 0 0 0 0 0 0 0 0 0 0 0 0 0 0 0 0 0 0 0 0 0 0 0 0 0 0 0 0 0 0 0 0 0 0 0 0 0 0 0 0 0 0
0 0 0 0 0 0 0 0 0 0 0 0 0 0 0 0 0 0 0 0 0 0 0 0 0 0 0 0 0 0 0 0 0 0 0 0 0 0 0 0 0 0 0
0 0 0 0 0 0 0 0 0 0 0 0 0 0 0 0 0 0 0 0 0 0 0 0 0 0 0 0 0 0 0 0 0 0 0 0 0 0 0 0 0 0 0
0 0 0 0 0 0 0 0 0 0 0 0 0 0 0 0 0 0 0 0 0 0 0 0 0 0 0 0 0 0 0 0 0 0 0 0 0 0 0 0 0 0 0
0 0 0 0 0 0 0 0 0 0 0 0 0 0 0 0 0 0 0 0 0 0 0 0 0 0 0 0 0 0 0 0 0 0 0 0 0 0 0 0 0 0 0
0 0 0 0 0 0 0 0 0 0 0 0 0 0 0 0 0 0 0 0 0 0 0 0 0 0 0 0 0 0 0 0 0 0 0 0 0 0 0 0 0 0 0
0 0 0 0 0 0 0 0 0 0 0 0 0 0 0 0 0 0 0 0 0 0 0 0 0 0 0 0 0 0 0 0 0 0 0 0 0 0 0 0 0 0 0
0 0 0 0 0 0 0 0 0 0 0 0 0 0 0 0 0 0 0 0 0 0 0 0 0 0 0 0 0 0 0 0 0 0 0 0 0 0 0 0 0 0 0
0 0 0 0 0 0 0 0 0 0 0 0 0 0 0 0 0 0 0 0 0 0 0 0 0 0 0 0 0 0 0 0 0 0 0 0 0 0 0 0 0 0 0
0 0 0 0 0 0 0 0 0 0 0 0 0 0 0 0 0 0 0 0 0 0 0 0 0 0 0 0 0 0 0 0 0 0 0 0 0 0 0 0 0 0 0
0 0 0 0 0 0 0 0 0 0 0 0 0 0 0 0 0 0 0 0 0 0 0 0 0 0 0 0 0 0 0 0 0 0 0 0 0 0 0 0 0 0 0
0 0 0 0 0 0 0 0 0 0 0 0 0 0 0 0 0 0 0 0 0 0 0 0 0 0 0 0 0 0 0 0 0 0 0 0 0 0 0 0 0 0 0
0 0 0 0 0 0 0 0 0 0 0 0 0 0 0 0 0 0 0 0 0 0 0 0 0 0 0 0 0 0 0 0 0 0 0 0 0 0 0 0 0 0 0
0 0 0 0 0 0 0 0 0 0 0 0 0 0 0 0 0 0 0 0 0 0 0 0 0 0 0 0 0 0 0 0 0 0 0 0 0 0 0 0 0 0 0
0 0 0 0 0 0 0 0 0 0 0 0 0 0 0 0 0 0 0 0 0 0 0 0 0 0 0 0 0 0 0 0 0 0 0 0 0 0 0 0 0 0 0
0 0 0 0 0 0 0 0 0 0 0 0 0 0 0 0 0 0 0 0 0 0 0 0 0 0 0 0 0 0 0 0 0 0 0 0 0 0 0 0 0 0 0
0 0 0 0 0 0 0 0 0 0 0 0 0 0 0 0 0 0 0 0 0 0 0 0 0 0 0 0 0 0 0 0 0 0 0 0 0 0 0 0 0 0 0
0 0 0 0 0 0 0 0 0 0 0 0 0 0 0 0 0 0 0 0 0 0 0 0 0 0 0 0 0 0 0 0 0 0 0 0 0 0 0 0 0 0 0
0 0 0 0 0 0 0 0 0 0 0 0 0 0 0 0 0 0 0 0 0 0 0 0 0 0 0 0 0 0 0 0 0 0 0 0 0 0 0 0 0 0 0
0 0 0 0 0 0 0 0 0 0 0 0 0 0 0 0 0 0 0 0 0 0 0 0 0 0 0 0 0 0 0 0 0 0 0 0 0 0 0 0 0 0 0
0 0 0 0 0 0 0 0 0 0 0 0 0 0 0 0 0 0 0 0 0 0 0 0 0 0 0 0 0 0 0 0 0 0 0 0 0 0 0 0 0 0 0
0 0 0 0 0 0 0 0 0 0 0 0 0 0 0 0 0 0 0 0 0 0 0 0 0 0 0 0 0 0 0 0 0 0 0 0 0 0 0 0 0 0 0
0 0 0 0 0 0 0 0 0 0 0 0 0 0 0 0 0 0 0 0 0 0 0 0 0 0 0 0 0 0 0 0 0 0 0 0 0 0 0 0 0 0 0
0 0 0 0 0 0 0 0 0 0 0 0 0 0 0 0 0 0 0 0 0 0 0 0 0 0 0 0 0 0 0 0 0 0 0 0 0 0 0 0 0 0 0
0 0 0 0 0 0 0 0 0 0 0 0 0 0 0 0 0 0 0 0 0 0 0 0 0 0 0 0 0 0 0 0 0 0 0 0 0 0 0 0 0 0 0
0 0 0 0 0 0 0 0 0 0 0 0 0 0 0 0 0 0 0 0 0 0 0 0 0 0 0 0 0 0 0 0 0 0 0 0 0 0 0 0 0 0 0
Wind_Speed
4 3 2 2 2 2 2 2 2 3 3 3 3 4 4 3 3 3 3 8 9 8 8 8 8 9 9 8 9 9 8 8 8 8 8 9 9 9 9 10 9 9 9
4 3 3 3 3 2 2 2 3 3 2 2 3 4 4 3 4 4 4 5 9 9 9 9 9 9 9 9 9 9 9 9 9 9 9 9 9 9 9 9 9 9 9
4 4 3 3 2 2 3 3 3 3 3 3 4 3 3 3 4 4 4 3 4 8 9 9 9 10 10 9 9 9 9 9 10 10 9 9 9 9 9 9 9 10 9
4 4 3 3 2 2 3 3 3 3 3 3 3 3 3 3 4 3 3 3 3 3 6 9 9 9 10 10 9 9 9 9 9 10 9 9 9 9 9 10 10 10 10
4 4 3 2 3 3 3 3 3 3 3 3 3 3 3 3 3 3 3 4 3 3 3 6 9 9 10 10 9 9 9 9 9 9 10 9 9 9 10 9 10 10 10
4 3 3 3 3 3 3 3 3 3 2 2 3 3 3 2 2 3 3 3 3 3 3 3 3 5 9 9 9 9 9 9 9 9 9 9 10 10 10 9 9 10 10
3 3 3 3 3 3 3 3 3 4 3 2 2 2 2 2 2 2 2 2 2 3 3 3 2 2 3 7 8 8 8 8 9 8 8 9 9 9 10 10 10 10 10
3 3 3 3 2 3 3 3 2 2 2 2 2 2 1 1 1 1 1 1 1 1 2 2 2 2 2 2 5 8 8 9 9 9 9 9 9 9 9 9 9 10 10
3 3 3 3 2 2 2 2 2 3 2 2 2 2 2 2 1 1 1 1 1 1 1 1 1 1 2 2 2 5 8 8 9 9 9 9 9 9 9 9 9 9 10
3 3 3 3 3 2 2 2 2 2 2 1 1 2 1 2 1 1 1 1 1 0 1 0 0 0 1 1 2 6 7 8 8 8 9 9 10 10 10 9 9 9 10
2 2 2 2 2 2 2 2 2 2 2 2 1 1 1 1 1 1 1 2 2 1 1 1 1 1 0 1 1 4 6 7 8 9 9 9 10 10 10 10 10 10 10
1 1 2 2 2 1 2 2 2 2 2 2 1 1 2 1 1 1 1 2 2 2 1 1 1 1 1 1 2 5 6 7 8 9 9 10 10 11 11 11 10 10 10
1 1 1 1 1 1 1 2 2 2 2 2 2 1 1 1 2 2 2 1 2 2 2 1 1 1 1 1 2 5 6 7 8 9 10 10 10 10 10 11 10 10 10
2 2 2 2 1 2 2 2 1 1 2 2 1 1 1 1 1 2 2 2 1 2 2 3 1 2 1 1 3 5 4 8 9 9 10 10 10 9 9 10 10 10 10
2 2 2 2 2 2 2 2 1 1 2 2 2 2 1 1 1 1 2 3 3 2 3 3 2 2 2 2 4 2 3 7 9 9 10 10 9 9 9 9 9 9 10
2 2 3 2 2 2 2 2 2 2 2 2 2 2 2 1 1 1 1 2 2 3 4 2 3 2 2 3 5 3 4 8 9 10 10 10 9 9 9 9 9 9 10
3 3 3 3 3 2 2 2 2 2 3 2 2 3 3 2 1 2 2 2 2 3 4 4 2 2 2 3 4 3 3 3 4 9 9 9 9 10 10 9 9 9 9
3 3 3 3 3 3 3 4 4 3 3 3 3 3 3 2 3 2 2 3 3 3 4 5 3 3 4 4 4 4 4 3 3 8 9 9 10 10 10 9 9 9 9
3 3 3 3 3 3 3 4 4 3 4 4 4 4 4 3 4 3 3 3 3 3 3 4 4 3 3 3 3 3 3 3 4 5 8 9 10 10 10 9 9 9 9
4 4 4 4 4 4 4 4 3 4 4 4 4 4 4 5 5 4 4 4 3 3 3 4 4 3 3 3 2 3 3 2 3 3 5 6 8 9 9 9 8 8 8
4 4 3 3 3 3 4 4 4 4 4 4 4 4 5 6 7 6 4 4 4 3 3 3 4 3 3 2 2 2 3 4 3 2 2 3 3 3 4 7 7 8 8
3 3 4 4 4 4 6 8 6 4 4 5 4 4 4 6 7 9 9 7 6 5 4 4 3 4 5 3 3 2 2 3 4 1 2 3 2 3 3 3 7 9 8
4 4 4 4 5 6 8 8 8 4 4 5 5 4 4 4 6 4 6 8 8 9 8 5 5 6 5 4 3 3 3 4 5 3 1 4 2 3 3 5 9 8 7
4 4 5 5 5 6 9 9 8 4 4 5 5 5 5 5 4 5 4 4 5 6 7 5 6 6 5 4 4 4 4 4 4 2 2 4 3 3 3 3 7 7 7
4 4 4 5 5 6 8 9 7 3 4 5 5 5 5 5 9 9 5 5 5 5 7 8 9 9 10 9 6 2 2 2 4 3 2 2 3 3 3 3 4 6 7
4 4 4 4 5 6 8 9 7 3 3 4 3 4 8 8 10 9 5 5 6 6 4 4 5 6 5 6 7 4 4 3 3 3 2 2 2 2 3 2 2 2 3
Wind_Direction
92 86 77 69 67 64 69 66 73 77 72 62 72 83 79 72 69 59 46 57 63 62 61 60 56 52 47 45 42 41 46 44 41 37 33 29 24 20 17 16 12 9 6
98 93 82 68 60 62 69 75 77 82 78 77 75 75 81 78 74 68 57 50 55 59 62 60 55 49 43 41 40 43 46 44 40 35 31 28 23 17 14 12 10 6 2
99 96 88 73 57 61 73 73 65 68 71 72 70 70 75 75 80 71 64 54 45 48 55 57 52 47 40 37 37 43 46 42 36 32 29 25 19 14 14 13 12 8 4
93 93 89 77 63 67 72 76 64 66 60 63 66 61 65 74 78 73 68 61 51 45 47 56 52 48 43 37 35 37 40 38 32 27 24 21 17 13 13 12 12 9 6
87 88 87 80 75 74 67 76 63 67 64 58 71 69 60 63 65 74 71 64 58 56 47 53 52 49 44 38 33 32 31 30 25 22 22 18 13 9 7 7 9 6 3
88 89 88 80 79 82 71 73 80 66 72 64 68 65 55 53 59 62 65 63 59 60 57 56 44 36 38 36 31 27 25 22 20 18 17 14 8 3 359 3 5 1 1
89 92 93 85 82 87 91 89 90 81 57 45 72 52 33 44 62 62 59 61 56 57 60 59 52 40 23 28 24 24 19 14 12 12 8 5 2 359 357 359 0 358 357
84 96 99 98 93 96 88 81 89 95 63 38 92 105 51 349 8 46 52 70 51 50 55 55 49 40 31 16 13 20 14 7 2 1 1 359 355 352 351 352 355 357 355
86 96 105 105 100 105 111 98 96 111 113 49 52 124 140 215 299 327 4 45 24 50 26 30 41 22 26 18 355 3 8 2 354 350 351 353 349 348 347 347 347 348 348
83 89 99 104 103 101 109 106 92 105 118 111 50 51 101 144 166 296 321 334 332 302 291 303 330 342 22 2 354 359 3 357 349 344 342 342 342 341 339 339 340 340 341
76 86 96 100 103 106 111 105 105 109 117 140 148 134 102 77 125 166 266 308 326 292 267 250 237 240 294 329 318 340 353 347 341 337 335 335 335 334 333 336 336 337 337
70 78 98 105 116 123 128 127 126 119 116 125 136 150 156 157 164 151 216 280 289 284 278 260 240 241 248 280 306 334 337 335 333 329 327 329 332 331 329 327 329 331 331
188 193 127 150 156 155 147 143 134 131 134 137 159 171 169 179 165 156 170 240 278 287 287 268 240 242 253 265 288 319 319 322 324 322 321 324 328 327 324 322 323 326 327
196 188 184 190 185 170 163 151 143 157 140 151 169 168 177 194 180 174 173 174 271 293 279 269 268 243 256 261 286 308 301 312 314 314 314 317 319 318 317 319 321 323 322
187 179 182 189 189 181 176 165 169 179 158 164 187 186 192 203 193 196 184 175 182 248 274 268 270 264 268 263 292 287 284 299 308 309 308 308 309 309 310 311 313 314 315
183 177 187 189 190 189 182 173 182 185 178 186 194 197 208 213 209 201 195 197 194 203 250 266 256 275 289 289 297 289 279 300 303 305 306 304 302 302 303 304 307 308 310
187 190 192 189 192 195 191 188 201 193 196 204 203 207 219 206 203 210 202 202 208 202 240 271 264 275 275 278 294 289 278 278 287 300 301 303 304 303 300 298 300 302 306
195 196 192 191 201 204 199 199 207 203 203 212 216 217 228 213 214 211 207 218 219 215 223 260 276 272 264 269 274 281 285 284 275 293 297 300 302 303 302 298 298 300 303
196 197 195 204 211 210 208 212 209 209 211 216 216 218 226 212 226 221 216 227 232 229 221 243 267 266 270 275 282 281 281 282 283 289 293 297 299 300 302 301 300 303 302
199 205 210 215 217 215 214 215 213 216 219 223 222 221 220 214 223 223 222 224 227 234 233 247 261 269 268 268 265 281 297 291 292 292 290 294 297 300 300 302 300 302 301
209 208 210 220 221 218 219 217 217 218 219 228 232 229 227 226 228 225 225 219 213 226 237 246 259 268 266 266 261 256 280 299 289 269 292 290 292 287 291 297 292 291 291
213 209 213 217 224 231 241 237 226 218 217 221 232 236 238 238 241 244 245 237 221 220 228 235 252 259 266 257 255 257 275 304 300 282 290 286 259 271 274 269 283 287 288
213 219 223 220 230 240 245 245 235 217 216 220 224 227 237 238 241 238 251 251 248 248 239 228 240 249 257 247 250 262 253 252 260 270 286 283 273 271 272 279 287 283 291
214 221 227 227 235 247 248 245 240 221 218 225 224 222 226 237 234 232 230 239 246 252 252 239 234 245 245 245 236 242 251 260 262 254 210 270 283 273 283 280 283 281 290
222 224 227 226 234 250 248 245 237 212 222 234 232 226 225 231 244 246 236 238 252 261 265 258 256 260 265 266 256 248 247 263 280 264 203 241 275 286 284 274 275 280 286
225 225 234 231 231 243 250 247 233 205 222 237 239 237 239 240 246 245 233 229 247 256 252 264 268 273 271 269 266 236 221 234 261 272 215 220 263 303 303 284 274 278 286